Garrison, ND

3:43 AM CDT on April 27, 2017 (GMT -0500)
Garrison

Weather History for KN60 - December, 2012

Change the Weather History Date:

Monday, December 24, 2012

  Actual Average Record
Temperature  
Mean Temperature -3 °F -  
Max Temperature 5 °F - 41 °F (2005)
Min Temperature -12 °F - -20 °F (1996)
Degree Days  
Heating Degree Days 68    
Month to date heating degree days 1170  
Cooling Degree Days 0    
Moisture  
Dew Point -8 °F    
Average Humidity 81    
Maximum Humidity 87    
Minimum Humidity 74    
Precipitation  
Precipitation 0.00 in - 0.05 in (2013)
Month to date precipitation 0.78  
Year to date precipitation 16.85  
Sea Level Pressure  
Sea Level Pressure 30.40 in    
Wind  
Wind Speed 6 mph (NNW)    
Max Wind Speed 9 mph    
Max Gust Speed 10 mph    
T = Trace of Precipitation, MM = Missing Value Source: NWS Daily Summary

Daily Weather History Graph

Daily Weather History Graph

Search for Another Location

Airport or City:

Trip Planner

Search our weather history database for the weather conditions in past years. The results will help you decide how hot, cold, wet, or windy it might be!

Date:

Astronomy

Dec. 24, 2012 Rise Set
Actual Time 8:32 AM CST 4:58 PM CST
Civil Twilight 7:56 AM CST 5:34 PM CST
Nautical Twilight 7:17 AM CST 6:13 PM CST
Astronomical Twilight 6:39 AM CST 6:51 PM CST
Moon 2:32 PM CST (12/24) 5:07 AM CST (12/24)
Length of Visible Light 9h 37m
Length of Day
8h 25m
Waxing Gibbous, 88% of the Moon is Illuminated
Dec 24
Waxing Gibbous
Dec 28
Full
Jan 4
Last Quarter
Jan 11
New
Jan 18
First Quarter

Hourly Weather History & Observations

Time (CST) Temp. Windchill Dew Point Humidity Pressure Visibility Wind Dir Wind Speed Gust Speed Precip Events Conditions
12:52 AM -5.1 °F -13.6 °F -9.0 °F 83% 30.30 in - North 3.5 mph - N/A   Unknown
1:52 AM -6.0 °F -18.6 °F -9.0 °F 87% 30.30 in - North 5.8 mph - N/A   Unknown
2:52 AM -8.0 °F -23.9 °F -13.0 °F 79% 30.32 in - NNW 8.1 mph - N/A   Unknown
3:52 AM -8.0 °F -22.5 °F -11.9 °F 83% 30.31 in - North 6.9 mph - N/A   Unknown
4:52 AM -9.9 °F -21.5 °F -14.1 °F 82% 30.32 in - NNW 4.6 mph - N/A   Unknown
5:52 AM -9.0 °F -20.4 °F -13.0 °F 83% 30.33 in - North 4.6 mph - N/A   Unknown
6:52 AM -11.0 °F -20.4 °F -15.0 °F 83% 30.35 in - North 3.5 mph - N/A   Unknown
7:52 AM -9.0 °F - -13.0 °F 83% 30.36 in - Calm Calm - N/A   Unknown
8:52 AM -4.0 °F -14.6 °F -8.0 °F 83% 30.38 in - NNW 4.6 mph - N/A   Unknown
9:52 AM -0.0 °F -13.0 °F -4.0 °F 83% 30.38 in - NNE 6.9 mph - N/A   Unknown
10:52 AM 1.9 °F -10.6 °F -2.9 °F 80% 30.40 in - NNW 6.9 mph - N/A   Unknown
11:52 AM 3.9 °F -6.9 °F -2.0 °F 76% 30.40 in - NNW 5.8 mph - N/A   Unknown
12:52 PM 3.9 °F -9.4 °F -2.0 °F 76% 30.40 in - North 8.1 mph - N/A   Unknown
1:52 PM 3.9 °F -9.4 °F -2.0 °F 76% 30.40 in - North 8.1 mph - N/A   Unknown
2:52 PM 3.9 °F -6.9 °F -2.9 °F 73% 30.40 in - North 5.8 mph - N/A   Unknown
3:52 PM 1.0 °F -6.7 °F -6.0 °F 72% 30.42 in - North 3.5 mph - N/A   Unknown
4:52 PM -6.0 °F -22.6 °F -11.0 °F 79% 30.45 in - NNW 9.2 mph - N/A   Unknown
5:52 PM -9.0 °F -23.8 °F -13.0 °F 83% 30.47 in - NW 6.9 mph - N/A   Unknown
6:52 PM -6.0 °F -16.9 °F -11.9 °F 75% 30.49 in - NNW 4.6 mph - N/A   Unknown
7:52 PM -2.0 °F -15.4 °F -6.0 °F 83% 30.50 in - NW 6.9 mph - N/A   Unknown
8:52 PM -0.0 °F -15.3 °F -5.1 °F 79% 30.51 in - NW 9.2 mph - N/A   Unknown
9:52 PM 1.9 °F -12.9 °F -2.9 °F 80% 30.50 in - NW 9.2 mph - N/A   Unknown
10:52 PM 3.0 °F -11.5 °F -2.9 °F 76% 30.50 in - NW 9.2 mph - N/A   Unknown
11:52 PM 3.0 °F -11.5 °F -2.0 °F 80% 30.52 in - NW 9.2 mph - N/A   Unknown